Погода в Нижнеангарске

Погода в Нижнеангарске : погода сейчас, прогноз погоды и архив. Всё, что Вы хотите узнать о погоде в Нижнеангарске!

Поиск расширенной информации на нашем сайте:

Другие новости

Новости СМИ2

Главная страница сайта

Новости сайта

02.10.2013

Напоминаем, что на нашем новом сайте вы можете получить высокодетализированные прогнозы погоды по пунктам России, СНГ и мира (включающие важные для авиации метеовеличины, такие как направление и скорость ветра, видимость, явления погоды, количество и форма облачности, нижняя и верхняя граница облачности), а также ознакомиться с разнообразными материалами по авиационной метеорологии и подборкой полезных ссылок на эту тему.

Сайт Метеоцентр.Азия посвящён разработке технологий оптимизации авиаметеорологического обслуживания, включая проектирование и перспективное создание нескольких автоматизированных авиаметеорологических систем:
- система выпуска высокодетальных прогностических карт явлений погоды для нижнего воздушного пространства по России и ближнему зарубежью;
- система верификации прогнозов TAF (выпускаемых синоптиками официальных АМСГ РФ и ближнего зарубежья) и AUTOTAF (выпускаемых сайтом Метеоцентр.Азия) - выявление ошибок, онлайн-сопоставление с фактической погодой METAR, автоматическое внесение коррективов в прогнозы при резком отклонении фактической погоды от прогноза, подсчёт оправдываемости прогнозов по элементам и в целом;
- система обработки, анализа и отображения авиаметеорологической информации для применения провайдерами метеорологической информации.


Погода в Нижнеангарске - сегодня

Время (UTC), дата Ветер
(°,м/с) 
Видим.   Явления Облачность Т
(°С)
Тd
(°С)
f(%) Тe
(°С)
Pmin
(гПа)
dP
(гПа)
Po
(мм)
O2
(г/м3)
Тmin Tmax R s Состояние
почвы
18 14.01.17 260 (З) н/о    ясно 
-22.6 -26.2 72 -23  1037.7  -0.2  730  322           
21 14.01.17 250 (З) н/о    ясно 
-22.4 -26.5 69 -23  1037.7  0.1  730  322           
00 15.01.17 260 (З) н/о    5/0 верхняя 
[Cs]
-23.1 -27.2 69 -24  1037.7  -0.2  729  323  -23.1      31  равномерный
сухой снег
100% 
03 15.01.17 050 (СВ) 20000 м    6/0 верхняя 
[Ci fib]
-21.2 -26.2 64 -24  1037.1  -0.1  729  320  -23.1         
06 15.01.17 050 (СВ) 20000 м    9/0 средняя, верхняя 
[Ac trans|Ci fib]
-18.1 -25.3 53 -18  1035.5  -0.8  729  316           
09 15.01.17 030 (СВ) 20000 м    10/0 средняя, верхняя 
[Ac trans|Ci fib]
-19.7 -25.1 62 -20  1036.2  0.3  729  318           
12 15.01.17 тихо ()   н/о    10/0 средняя, верхняя 
[Ac trans|Ci fib]
-20.4 -25.1 66 -20  1036.9  0.5  729  319    -18       
15 15.01.17 040 (СВ) н/о    10/0 средняя, верхняя 
[Ac trans|Ci fib]
-21.6 -26.2 66 -22  1037.3  0.1  729  321           
18 15.01.17 070 (В) н/о    10/0 средняя, верхняя 
[Ac trans|Ci fib]
-20.5 -25.6 64 -21  1037.1  0.1  730  319           
21 15.01.17 250 (З) н/о    10/0 средняя, верхняя 
[Ac trans|Ci fib]
-20.9 -25.4 67 -21  1037.3  0.1  730  320           
00 16.01.17 тихо ()   н/о    10/0 средняя, верхняя 
[Ac trans|Ci fib]
-23.1 -26.7 72 -23  1038.3  0.3  730  323  -23.3      31  равномерный
сухой снег
100% 
03 16.01.17 020 (С) 20000 м    10/0 средняя, верхняя 
[Ac trans|Ci fib]
-20.1 -25.5 62 -20  1038.2  0.7  730  319  -23.5         
06 16.01.17 050 (СВ) 20000 м    10/0 средняя, верхняя 
[Ac lent|Ci fib]
-19.7 -25.6 59 -24  1037.4  -0.7  730  319           
09 16.01.17 050 (СВ) 20000 м    10/0 средняя, верхняя 
[Ac lent|Ci fib]
-20.3 -25.3 64 -21  1037.7  0.2  730  319           
12 16.01.17 тихо ()   н/о    6/0 верхняя 
[Ci fib]
-21.5 -25.7 69 -22  1038.4  0.3  730  321    -17.8       
15 16.01.17 200 (Ю) н/о    5/0 верхняя 
[Ci fib]
-23.6 -27 74 -24  1038.2  -0.7  730  324           
18 16.01.17 300 (СЗ) н/о    5/0 верхняя 
[Ci fib]
-23.1 -26 77 -24  1037.9  -0.2  730  323           
21 16.01.17 230 (ЮЗ) н/о    8/0 верхняя 
[Ci fib]
-23.3 -26.6 74 -26  1037.7  -0.1  729  323           
00 17.01.17 240 (ЮЗ) н/о    6/0 верхняя 
[Ci fib]
-23.9 -26.5 79 -24  1038.1  0.2  730  324  -25.7      31  равномерный
сухой снег
100% 
03 17.01.17 190 (Ю) 20000 м    10/0 верхняя 
[Cs]
-22.4 -25.9 73 -23  1038.5  0.7  730  322           
06 17.01.17 100 (В) 20000 м    8/0 верхняя 
[Ci fib]
-20.9 -26.2 62 -21  1037.6  -0.5  730  320           
09 17.01.17 020 (С) 20000 м    4/0 верхняя 
[Ci fib]
-22.4 -26.3 71 -23  1039.1  1.1  731  322           
12 17.01.17 тихо ()   н/о    3/0 верхняя 
[Ci fib]
-23.5 -26.8 74 -24  1040.7  1.2  731  324    -19.7       
15 17.01.17 250 (З) н/о    3/0 верхняя 
[Ci fib]
-24.9 -27.2 81 -25  1042  0.9  732  326           
18 17.01.17 290 (З) н/о    3/0 верхняя 
[Ci fib]
-25.8 -28.1 81 -26  1042.7  0.4  732  328           
Время (UTC), дата Ветер
(°,м/с) 
Видим.   Явления Облачность Т
(°С)
Тd
(°С)
f(%) Тe
(°С)
Pmin
(гПа)
dP
(гПа)
Po
(мм)
O2
(г/м3)
Тmin Tmax R s Состояние
почвы

Для получения пояснительной информации подведите курсор к названию столбца.

ПОГОДА в Нижнеангарске - архив

Всё, что Вы хотите узнать о погоде в Нижнеангарске - удобно и подробно!

Выберите нужную дату (начиная с 1 января 2015* года) и нажмите кнопку "Найти".
Будут отображены архивные сводки погоды по пункту Нижнеангарск, начиная с указанной даты.


Отображать данные в формате CSV (для использования в таблицах Excel)


Внимание! Наш архив погоды предназначен исключительно для личного некоммерческого использования в познавательных целях. Если Вам необходимы официальные справки о состоянии погоды (для производственных, юридических, коммерческих и т.п. целей), обращайтесь в органы Росгидромета.

*Примечание: данная дата относится к архиву по метеостанциям СССР (Россия, СНГ, Балтия).
Архив по метеостанциям Зарубежной Европы и Азии (кроме Китая) хранится 10 дней, по другим регионам земного шара (Китай, Африка, Америка, Австралия, Океания) - 1 день.

Нижнеангарск - район местоположения метеостанции


Название, широта, долгота, высота метеостанции:
Нижнеангарск 55.8°ш. 109.6°д. 487 м над ур. моря [Российская Федерация]

Дополнительная информация

В oтличие oт бoльшинства пoгoдных сайтoв мы публикуем пoдрoбную метеoинфoрмацию в детальнoм прoфессиoнальнoм фoрмате.

Характеристики температуры и влажнoсти вoздуха измеряются на высoте 2 м в тени вдали oт зданий и деревьев.
Скoрoсть ветра измеряется на высoте 10 м (на урoвне рoста челoвека скoрoсть ветра ниже в 1.5-2 раза). Если метеoстанция нахoдится в гoрoде или в лесу, тo скoрoсть ветра занижена на 2-4 м/с пo сравнению с oткрытым местoм. Скoрoсть ветра над акватoриями крупных рек и oзёр, а также на вершинах хoлмoв на 2-5 м/с выше, чем в oбычных услoвиях.
Атмoсфернoе давление в разных тoчках местнoсти мoжет значительнo oтличаться oт давления на метеoстанции, в зависимoсти oт услoвий рельефа (при пoдъёме на 10 м давление пoнижается примернo на 1 мм рт.ст.).